Regional Weather Roundup
Issued by NWS

Home | Current Version | Previous Version | Graphics & Text | Print | Product List | Glossary Off
Versions: 1 2 3 4 5 6 7 8 9 10 11 12 13 14 15 16 17 18 19 20 21 22 23 24 25 26 27 28 29 30 31 32 33 34 35 36 37 38 39 40 41 42 43 44 45 46 47 48 49 50

000
ASUS43 KOAX 272210
RWRNE

WEATHER ROUNDUP FOR NEBRASKA
NATIONAL WEATHER SERVICE OMAHA NE
500 PM CDT MON MAR 27 2017

NOTES: SATELLITE DATA IS BEING USED TO AUGMENT CLOUD COVER ABOVE
       12000 FEET.
       "FAIR" INDICATES FEW OR NO CLOUDS BELOW 12,000 FEET WITH NO
       SIGNIFICANT WEATHER AND/OR OBSTRUCTIONS TO VISIBILITY.

  * THESE STATIONS DO NOT REPORT WEATHER SUCH AS RAIN...SNOW OR FOG.

NEZ001>004-019>022-054>056-272300-
NEBRASKA PANHANDLE

CITY           SKY/WX    TMP DP  RH WIND       PRES   REMARKS
SCOTTSBLUFF    CLOUDY    64  27  24 S7        29.79F
ALLIANCE       CLOUDY    63  29  27 SW9       29.79F
CHADRON        MOSUNNY   65  30  27 N8        29.78F
KIMBALL        CLOUDY    61  32  33 S9G16     29.83F
SIDNEY         CLOUDY    61  32  33 S13       29.83F
$$

NEZ057>060-069>072-079>082-272300-
SOUTHWEST NEBRASKA

CITY           SKY/WX    TMP DP  RH WIND       PRES   REMARKS
NORTH PLATTE   SUNNY     65  37  35 SE7       29.85F
IMPERIAL       MOSUNNY   63  34  33 S7        29.84F
LEXINGTON      SUNNY     58  43  57 E9G16     29.90S
MCCOOK         MOSUNNY   65  46  50 E17G24    29.85F
OGALLALA       PTSUNNY   67  35  30 SE7       29.83F
$$

NEZ005>010-023>029-035>040-094-272300-
NORTH CENTRAL NEBRASKA

CITY           SKY/WX    TMP DP  RH WIND       PRES   REMARKS
VALENTINE      PTSUNNY   60  35  39 VRB5      29.85F
AINSWORTH      SUNNY     60  42  50 S5        29.88S
BROKEN BOW     MOSUNNY   57  43  59 SE10      29.89F
O`NEILL        SUNNY     61  39  44 SE9       29.90F
ORD            SUNNY     58  41  53 CALM      29.90F
THEDFORD       SUNNY     64  37  35 S8        29.85F
$$

NEZ041-046>049-061>064-073>077-083>087-272300-
SOUTH CENTRAL NEBRASKA

CITY           SKY/WX    TMP DP  RH WIND       PRES   REMARKS
GRAND ISLAND   MOSUNNY   53  42  66 VRB3      29.94F
AURORA         CLOUDY    53  43  68 CALM      29.95S
HASTINGS       MOSUNNY   51  42  71 SE5       29.94F
HEBRON         CLOUDY    50  42  75 N3        29.95F
HOLDREGE       SUNNY     59  42  54 E3        29.90F
KEARNEY *      MOSUNNY   55  43  62 E7        29.92F
YORK           CLOUDY    52  41  66 CALM      29.95S
$$

NEZ011>018-030>034-042>045-272300-
NORTHEAST NEBRASKA

CITY           SKY/WX    TMP DP  RH WIND       PRES   REMARKS
NORFOLK        SUNNY     58  37  45 CALM      29.92S
ALBION         SUNNY     58  37  44 E5        29.92F
BLAIR          CLOUDY    50  41  71 NE5       29.96R
FREMONT        CLOUDY    51  40  66 CALM      29.96S
TEKAMAH        CLOUDY    53  41  63 E5        29.95S
WAYNE          SUNNY     57  40  51 SE5       29.93S
$$

NEZ050>053-065>068-078-088>093-272300-
SOUTHEAST NEBRASKA

CITY           SKY/WX    TMP DP  RH WIND       PRES   REMARKS
LINCOLN        MOSUNNY   55  39  54 VRB3      29.96F
OMAHA EPPLEY   CLOUDY    51  40  65 N3        29.96R
BEATRICE       CLOUDY    53  43  68 NW3       29.95F
FALLS CITY     CLOUDY    54  44  69 N6        29.94S
NEBRASKA CITY  CLOUDY    49  39  67 NE8       29.96R
PLATTSMOUTH    CLOUDY    49  38  65 NE5       29.96R
$$

NEZ044-045-051>053-067-272300-
OMAHA AREA

CITY           SKY/WX    TMP DP  RH WIND       PRES   REMARKS
OMAHA EPPLEY   CLOUDY    51  40  65 N3        29.96R
BLAIR          CLOUDY    50  41  71 NE5       29.96R
FREMONT        CLOUDY    51  40  66 CALM      29.96S
MILLARD        CLOUDY    52  42  69 CALM      29.96S
OFFUTT AFB     CLOUDY    50  40  68 VRB3      29.95S
PLATTSMOUTH    CLOUDY    49  38  65 NE5       29.96R
WAHOO          CLOUDY    51  40  67 CALM      29.96S
$$



USA.gov is the U.S. government's official web portal to all federal, state and local government web resources and services.